Regional Weather Roundup
Issued by NWS

Home | Current Version | Previous Version | Text Only | Print | Product List | Glossary Off
Versions: 1 2 3 4 5 6 7 8 9 10 11 12 13 14 15 16 17 18 19 20 21 22 23 24 25 26 27 28 29 30 31 32 33 34 35 36 37 38 39 40 41 42 43 44 45 46 47 48 49 50

000
ASUS43 KIND 292159
RWRIN

WEATHER ROUNDUP FOR INDIANA
NATIONAL WEATHER SERVICE INDIANAPOLIS IN
600 PM EDT MON JUN 29 2015

NOTE: "FAIR" INDICATES FEW OR NO CLOUDS BELOW 12,000 FEET WITH NO
SIGNIFICANT WEATHER AND/OR OBSTRUCTIONS TO VISIBILITY.

* - STATION DOES NOT REPORT WEATHER SUCH AS PRECIPITATION OR FOG.

+ - STATION NOT QUALITY CONTROLLED BY THE NATIONAL WEATHER SERVICE.
    USE DATA WITH CAUTION...ESPECIALLY DEWPOINT AND RELATIVE
    HUMIDITY OBSERVATIONS.

INZ001>003-010>013-019-020-292300-
NORTHWEST INDIANA

CITY           SKY/WX    TMP DP  RH WIND       PRES   REMARKS
GARY /AIRPORT/ PTSUNNY   73  66  78 SE7       29.80F
RENSSELAER +   LGT RAIN  72  68  88 CALM      29.80S

$$

LMZ046-743>745-292300-
SOUTHERN LAKE MICHIGAN

STATION/POSITION TIME  TEMP    WIND        PRES    WAVE
                       AIR SEA DIR/SP/G            HT
                 (UTC) (F)     (DEG/KT/KT) (MB)    (FT)
BURNS HARBOR     2100   69      10/  5/  7 1009.8S
MICHIGAN CITY    2100   68     310/  7/  8   N/A
5NW MICH CITY    2100   68 66   20/  4/  4   N/A     0

$$

INZ004-005-014>016-021>024-292300-
NORTH CENTRAL INDIANA

CITY           SKY/WX    TMP DP  RH WIND       PRES   REMARKS
GOSHEN         CLOUDY    65  59  81 E7        29.83S
SOUTH BEND     CLOUDY    69  61  75 SE10      29.82S

$$

INZ006>009-017-018-025>027-292300-
NORTHEAST INDIANA

CITY           SKY/WX    TMP DP  RH WIND       PRES   REMARKS
ANGOLA *+      CLOUDY    63  52  67 SE8       29.84F
FORT WAYNE     CLOUDY    64  60  87 E8        29.83S

$$

INZ028-029-035-036-043>045-051>053-292300-
WEST CENTRAL INDIANA

CITY           SKY/WX    TMP DP  RH WIND       PRES   REMARKS
CRAWFORDSVL +  CLOUDY    73  61  66 W8        29.79S
GREENCASTLE +  CLOUDY    73  61  64 W5        29.81R
LAFAYETTE      MOSUNNY   74  64  71 SW5       29.78F
TERRE HAUTE    PTSUNNY   78  65  63 W10       29.79F

$$

INZ030>032-037>040-046>048-054>057-064-065-292300-
CENTRAL INDIANA

CITY           SKY/WX    TMP DP  RH WIND       PRES   REMARKS
GREENWOOD *+   MOSUNNY   75  61  60 W6        29.80S
INDIANAPOLIS   PTSUNNY   76  63  64 W10       29.78S
-EAGLE CREEK   PTSUNNY   74  63  68 W9        29.79R
KOKOMO *+      CLOUDY    72  63  73 CALM      29.79S
MT COMFORT *+  PTSUNNY   72  63  73 CALM      29.80S
SHELBYVILLE    MOSUNNY   77  66  68 W5        29.78S

$$

INZ033-034-041-042-049-050-058-059-292300-
EAST CENTRAL INDIANA

CITY           SKY/WX    TMP DP  RH WIND       PRES   REMARKS
MUNCIE         PTSUNNY   73  62  68 N6        29.80S

$$

INZ060-061-067>069-081>083-085>088-292300-
SOUTHWEST INDIANA

CITY           SKY/WX    TMP DP  RH WIND       PRES   REMARKS
EVANSVILLE     MOSUNNY   82  65  56 NW10G17   29.83S
HUNTINGBURG *+ MOSUNNY   79  66  65 W16       29.82S

$$

INZ062-063-066-070>080-084-089>092-292300-
SOUTH CENTRAL AND SOUTHEAST INDIANA

CITY           SKY/WX    TMP DP  RH WIND       PRES   REMARKS
BLOOMINGTON    PTSUNNY   77  65  66 W13G20    29.81R
MADISON *+     MOSUNNY   81  63  54 W9G16     29.81R
SEYMOUR +      MOSUNNY   81  63  54 W10G17    29.78S

$$




USA.gov is the U.S. government's official web portal to all federal, state and local government web resources and services.